FENGYUN 1C DEB

Satellite information

Favourite Embed

Satellite Type and Status

DEBRISIN ORBIT

Key statistics

Satellite FENGYUN 1C DEB at a glance.

Uptime

9714

Days in orbit

Revolutions

≈ 14.4

Per day

Orbit

SSO

Sun Synchronous Orbit

Inclination

98.8

Latest

Satellite identification and parameters

Extended collection of information and parameters for FENGYUN 1C DEB.

Object identification

Identified? True

Debris? True

Object name: FENGYUN 1C DEB

International designator: 1999-025AET

Object number (NORAD): 30432

Object ID (CCSDS): 30432

Country: PEOPLES REPUBLIC OF CHINA (PRC)

Current information (Y/N): Y

RCS size: SMALL

Orbital parameters

Period: 99.953 minutes

Inclination: 98.8348 deg

SMA: 7134.402 km

Apoapsis: 815.51 km

Periapsis: 697.024 km

RAAN: 245.0012 deg

Eccentricy: 0.00830384

Argument of periapsis: 340.7369 deg

Mean anomaly: 19.0684 deg

Mean motion: 14.40676166 rev/day

Mean motion (dot): 0.00003887 rev/day2

B* drag term: 0.0011828793 1/REarth

Two-line elements (TLE)

Creation date: Dec. 12, 2025, 10:14 a.m.

Reference frame: TEME

Reference center: EARTH

Epoch: Dec. 12, 2025, 3:35 a.m. UTC

TLE line 0: 0 FENGYUN 1C DEB

TLE line 1: 1 30432U 99025AET 25346.14953279 .00003887 00000-0 11829-2 0 9996

TLE line 2: 2 30432 98.8348 245.0012 0083038 340.7369 19.0684 14.40676166987263

Live tracking on map

Real-time ground track for satellite FENGYUN 1C DEB.

In-orbit conjunctions

A list of the most updated potential collisions computed for object FENGYUN 1C DEB.

Target Orbit TCA Probability of collision Miss distance Type
OBJECT E SSO 2025-09-27 05:47:05 0.003496684 72.0 (m) UNKNOWN
COSMOS 2251 DEB LEO 2025-04-18 19:28:03 0.0002751938 27.0 (m) DEBRIS
SCOUT X-4 DEB LEO 2025-02-22 23:40:14 0.0001662714 383.0 (m) DEBRIS
NOAA 16 DEB SSO 2024-09-28 22:13:37 0.0004311143 102.0 (m) DEBRIS

Associated space launch

Chinese polar orbiting meteorological satellite

FENGYUN 1C DEB was lifted into orbit during the mission ‘Long March 4B | Feng Yun 1C’, on board a Long March 4B space rocket.

The launch took place on May 10, 1999, 1:33 a.m. from Launch Complex 7.

For more information about the launch, click the button.

Launch to space Long March 4B | Feng Yun 1C
Long March 4B | Feng Yun 1C

Agency: N/A

Status: Launch Successful

Launch date: May 10, 1999, 1:33 a.m. UTC

Rocket: Long March 4B

Launch pad: Launch Complex 7

Location: Taiyuan Satellite Launch Center, People's Republic of China

...

Latest news about this satellite

There are no fresh news available about this satellite. Check back as we update our databases every day.


Newsletter sign-up

Weekly statistics, charts and insights to help you stay on top of the space industry.